EW5627 Weather Reports


Display with metric or nautical units.
time (UTC)temp
F
wind
direction
speed
MPH
gust
MPH
rain 1hr
in
rain 24hr
in
rain mn
in
humidity
%
barometer
mb
20260906044523 65 29 0.0 1.0 0.00 0.00 0.00 87 1011.6
20260906043029 65 29 0.0 0.0 0.00 0.00 0.00 87 1011.5
20260906041521 65 29 0.0 0.0 0.00 0.00 0.00 86 1011.6
20260906040021 65 29 0.0 2.0 0.00 0.00 0.00 85 1011.6
20260906034532 65 30 0.0 0.0 0.00 0.00 0.00 85 1011.5
20260906033018 65 30 0.0 0.0 0.00 0.00 0.00 84 1011.4
20260906031525 65 30 0.0 0.0 0.00 0.00 0.00 83 1011.2
20260906030016 66 30 0.0 2.0 0.00 0.00 0.00 82 1011.2
20260906024515 66 30 0.0 2.0 0.00 0.00 0.00 81 1011.3
20260906023013 67 29 0.0 0.0 0.00 0.00 0.00 81 1011.0
20260906021513 67 29 1.0 3.0 0.00 0.00 0.00 81 1011.0
20260906020012 67 29 0.0 3.0 0.00 0.00 0.00 80 1011.0
20260906014512 67 13 0.0 0.0 0.00 0.00 0.00 80 1011.0
20260906013011 67 13 0.0 1.0 0.00 0.00 0.00 79 1010.9
20260906011510 67 12 0.0 0.0 0.00 0.00 0.00 78 1010.8
20260906010009 68 19 0.0 0.0 0.00 0.00 0.00 77 1010.7
20260906004506 68 19 0.0 0.0 0.00 0.00 0.00 76 1010.5
20260906003005 68 19 0.0 0.0 0.00 0.00 0.00 75 1010.4
20260906001504 68 19 0.0 0.0 0.00 0.00 0.00 75 1010.2
20260906000002 69 19 0.0 0.0 0.00 0.00 0.00 73 1010.0
20260905234503 70 19 0.0 0.0 0.00 0.00 0.00 72 1009.9
20260905233101 70 19 0.0 0.0 0.00 0.00 0.00 72 1009.9
20260905231607 71 19 0.0 0.0 0.00 0.00 0.00 71 1009.8
20260905224559 72 19 0.0 0.0 0.00 0.00 0.00 68 1009.5
20260905223057 73 19 0.0 0.0 0.00 0.00 0.00 67 1009.4
20260905221600 74 19 0.0 0.0 0.00 0.00 0.00 66 1009.3
20260905220058 74 19 0.0 0.0 0.00 0.00 0.00 64 1009.3
20260905214554 76 19 0.0 3.0 0.00 0.00 0.00 63 1009.1
20260905213054 76 15 0.0 2.0 0.00 0.00 0.00 61 1009.2
20260905211553 78 15 1.0 3.0 0.00 0.00 0.00 59 1009.1
20260905210107 79 23 1.0 3.0 0.00 0.00 0.00 60 1009.0
20260905204553 78 84 0.0 2.0 0.00 0.00 0.00 59 1008.9
20260905203052 79 80 1.0 5.0 0.00 0.00 0.00 58 1008.8
20260905201551 79 90 0.0 3.0 0.00 0.00 0.00 61 1008.8
20260905200113 78 59 1.0 4.0 0.00 0.00 0.00 59 1008.9
20260905194552 77 57 1.0 4.0 0.00 0.00 0.00 61 1008.7
20260905193049 77 277 1.0 3.0 0.00 0.00 0.00 61 1008.9
20260905191549 79 219 1.0 3.0 0.00 0.00 0.00 59 1008.9
20260905190047 79 283 1.0 3.0 0.00 0.00 0.00 60 1008.9
20260905184551 78 11 0.0 4.0 0.00 0.00 0.00 62 1009.0
20260905183044 78 58 0.0 3.0 0.00 0.00 0.00 63 1009.1
20260905181545 77 25 1.0 4.0 0.00 0.00 0.00 66 1009.2
20260905180043 77 225 0.0 0.0 0.00 0.00 0.00 67 1009.2
20260905174539 77 36 0.0 0.0 0.00 0.00 0.00 66 1009.4
20260905173045 76 78 0.0 4.0 0.00 0.00 0.00 67 1009.4
20260905171539 75 235 1.0 4.0 0.00 0.00 0.00 65 1009.6
20260905170037 76 15 1.0 3.0 0.00 0.00 0.00 65 1009.5
20260905164537 77 349 1.0 5.0 0.00 0.00 0.00 66 1009.7
20260905163033 76 187 1.0 4.0 0.00 0.00 0.00 69 1009.6
20260905161530 75 182 1.0 3.0 0.00 0.00 0.00 67 1009.5
20260905160029 75 138 1.0 5.0 0.00 0.00 0.00 67 1009.6
20260905154528 75 223 2.0 5.0 0.00 0.00 0.00 67 1009.5
20260905153029 74 360 2.0 5.0 0.00 0.00 0.00 71 1009.6
20260905151518 73 11 1.0 7.0 0.00 0.00 0.00 70 1009.6
20260905150020 71 192 2.0 5.0 0.00 0.00 0.00 73 1009.7
20260905144514 70 118 0.0 3.0 0.00 0.00 0.00 74 1009.5
20260905143009 71 342 1.0 8.0 0.00 0.00 0.00 78 1009.5
20260905141505 69 46 0.0 3.0 0.00 0.00 0.00 78 1009.4
20260905140004 69 42 1.0 4.0 0.00 0.00 0.00 79 1009.4
20260905134504 68 65 0.0 3.0 0.00 0.00 0.00 82 1009.4
20260905133002 67 237 0.0 3.0 0.00 0.00 0.00 84 1009.4
20260905131502 67 237 1.0 3.0 0.00 0.00 0.00 85 1009.5
20260905130000 66 236 0.0 0.0 0.00 0.00 0.00 85 1009.6
20260905124600 66 236 0.0 2.0 0.00 0.00 0.00 84 1009.8
20260905123112 65 235 0.0 0.0 0.00 0.00 0.00 84 1009.7
20260905121559 65 235 0.0 0.0 0.00 0.00 0.00 84 1009.8
20260905120056 65 235 0.0 2.0 0.00 0.00 0.00 84 1009.8
20260905114553 64 235 0.0 0.0 0.00 0.00 0.00 84 1009.7
20260905113052 64 235 0.0 0.0 0.00 0.00 0.00 85 1009.4
20260905111557 64 235 0.0 0.0 0.00 0.00 0.00 85 1009.2
20260905110050 63 235 0.0 0.0 0.00 0.00 0.00 86 1008.9
20260905104548 63 235 0.0 0.0 0.00 0.00 0.00 86 1008.9
20260905103056 63 235 0.0 0.0 0.00 0.00 0.00 86 1008.9
20260905101547 63 235 0.0 0.0 0.00 0.00 0.00 86 1008.9
20260905100055 64 235 0.0 0.0 0.00 0.00 0.00 85 1008.6
20260905094543 64 235 0.0 0.0 0.00 0.00 0.00 84 1008.6
20260905093042 64 235 0.0 0.0 0.00 0.00 0.00 84 1008.5
20260905091546 64 235 0.0 0.0 0.00 0.00 0.00 83 1008.5
20260905090040 65 235 0.0 0.0 0.00 0.00 0.00 83 1008.5
20260905084538 65 235 0.0 0.0 0.00 0.00 0.00 83 1008.5
20260905083036 65 235 0.0 0.0 0.00 0.00 0.00 83 1008.5
20260905081635 66 235 0.0 0.0 0.00 0.00 0.00 83 1008.5
20260905080057 66 235 0.0 0.0 0.00 0.00 0.00 82 1008.5
20260905074533 66 235 0.0 0.0 0.00 0.02 0.00 82 1008.6
20260905073032 67 235 0.0 0.0 0.00 0.02 0.00 82 1008.4
20260905071531 67 229 0.0 0.0 0.00 0.02 0.00 82 1008.5
20260905070037 67 212 0.0 0.0 0.00 0.02 0.00 81 1008.5
20260905064626 67 212 0.0 0.0 0.00 0.03 0.00 81 1008.6
20260905063023 68 212 0.0 2.0 0.00 0.03 0.00 81 1008.8
20260905061525 68 212 0.0 0.0 0.00 0.03 0.00 80 1008.9
20260905060037 68 212 0.0 0.0 0.00 0.03 0.00 80 1009.0
20260905054517 68 212 0.0 0.0 0.00 0.20 0.00 80 1009.2
20260905053014 69 212 0.0 0.0 0.00 0.20 0.00 81 1009.4
20260905051519 69 212 0.0 0.0 0.00 0.20 0.00 80 1009.4
20260905050017 69 212 0.0 0.0 0.00 0.20 0.00 82 1009.5